Regional Weather Roundup
Issued by NWS Newport/Morehead, NC

Current Version | Previous Version | Text Only | Print | Product List | Glossary Off
Versions: 1 2 3 4 5 6 7 8 9 10 11 12 13 14 15 16 17 18 19 20 21 22 23 24 25 26 27 28 29 30 31 32 33 34 35 36 37 38 39 40 41 42 43 44 45 46 47 48 49 50
000 ASUS42 KMHX 300922 RWRMHX WEATHER ROUNDUP FOR EASTERN NORTH CAROLINA NATIONAL WEATHER SERVICE NEWPORT/MOREHEAD CITY NC 500 AM EDT THU OCT 30 2014 NOTE: "FAIR" INDICATES FEW OR NO CLOUDS BELOW 12,000 FEET WITH NO SIGNIFICANT WEATHER AND/OR OBSTRUCTIONS TO VISIBILITY NCZ015>017-031-032-045>047-102-103-301000- NORTH COAST CITY SKY/WX TMP DP RH WIND PRES REMARKS EDENTON CLOUDY 54 52 92 NE3 29.99S ELIZABETH CITY CLOUDY 57 52 83 NE6 29.98F KITTY HAWK CLOUDY 57 55 93 N8G18 29.95F MANTEO CLOUDY 57 54 91 N15G21 29.97S $$ NCZ045>047-081-094-103-104-301000- CENTRAL COAST CITY SKY/WX TMP DP RH WIND PRES REMARKS FRISCO CLOUDY 60 58 92 N14G26 29.93F SWANQUARTER N/A 55 N/A N/A NE16 29.91S $$ NCZ095-097-098-100-101-301000- SOUTHERN COAST CITY SKY/WX TMP DP RH WIND PRES REMARKS BEAUFORT CLOUDY 60 59 96 N14 29.94R CEDAR ISLAND N/A 59 N/A N/A N24 30.00R JACKSONVILLE CLOUDY 60 58 92 N10 29.94S PINEY ISLAND LGT RAIN 61 56 83 N10G21 29.95R WILMINGTON LGT RAIN 59 57 93 CALM 29.93F $$ NCZ011>013-027>030-043-044-078>080-089-090>093-098-301000- COASTAL PLAIN CITY SKY/WX TMP DP RH WIND PRES REMARKS AHOSKIE NOT AVBL CLINTON CLOUDY 57 52 84 N3 29.98S ELIZABETHTOWN CLOUDY 58 51 78 CALM 29.97S GOLDSBORO CLOUDY 57 57 100 NE6G17 29.97R GREENVILLE MOCLDY 55 54 94 NE7 30.00F HAVELOCK CLOUDY 59 56 89 NE13 29.97R KENANSVILLE CLOUDY 57 55 93 N3 29.98R KINSTON CLOUDY 57 55 94 N12 29.99R NEW BERN CLOUDY 58 53 84 NE13G24 29.98R RICHLANDS CLOUDY 59 55 88 N7 29.96R ROCKY MOUNT MOCLDY 55 53 93 N5 30.00R WASHINGTON CLOUDY 56 54 94 NE5 29.99R WHITEVILLE CLOUDY 58 54 88 N5 29.95F $$ AMZ130-135-150-152-154-156-158-170-250-252-270-ANZ085-086-088-633-658-670-301000- MARINE OBSERVATIONS STATION/POSITION TIME TEMP WIND PRES WAVE SWELL AIR SEA DIR/SP/G HT/PER HT/PER (UTC) (F) (DEG/KT/KT) (MB) (FT/S) (FT/S) CHESAPEAKE LIGHT 0900 59 30/ 14/ 15 1015.5 64 E VA BEACH 0900 58 67 10/ 19/ 23 1013.8 6/ 6 2/10 DUCK 0900 59 67 20/ 17/ 22 1013.8 2 E DUCK NOT AVBL 10 NE DUCK 0900 67 N/A 6/ 6 OREGON INLET 0900 59 68 360/ 12/ 19 1014.3 13E OREGON INLT 0900 70 N/A 6/ 5 HATTERAS CG 0900 62 71 10/ 24/ 26 1013.9 DIAMOND BUOY 0900 68 340/ 16/ 19 1012.4 4/ 5 17 S OCRACOKE 0800 VRB 12/ 16 1012.8 CAPE LOOKOUT 0900 62 360/ 18/ 22 1013.2 BEAUFORT LAB 0900 61 70 10/ 12/ 16 1013.2 30 SE NEW RIVER 0900 68 74 350/ 16/ 17 1012.5 3/ 5 5 SE WRIGHTSVLE 0900 59 71 10/ 16/ 17 N/A 225 S CAPE HAT 0817 75 77 230/ 8/ 10 1014.6 2/ 8 2/ 8 41 SE CHARLESTON 0900 77 77 230/ 16/ 17 1012.5 3/ 4 2/ 9 $$

USA.gov is the U.S. government's official web portal to all federal, state and local government web resources and services.